sat.trackr.live / text

‹ back to catalog

SITRO-AIS 26

NORAD 59067 · 2024-039S

PAYLOAD ACTIVE UNKNOWN

§ Identity

Operator
Country
CIS
Launch date
2024-02-29
Launch site
VOSTO
Launch vehicle
Mass (kg)
RCS (m²)

Purposes: tech_demo

External: N2YO · Heavens-Above · Gunter

§ Orbital elements

Epoch: 2026-05-25T04:36:08.650656Z

Period
96.44 min
Inclination
95.3916°
Eccentricity
0.0146918
Mean motion
14.93140217 rev/d
Perigee alt
485.8 km
Apogee alt
690.5 km
Semi-major
6,966.3 km
B*
2.7709e-4
RAAN
219.1947°
Arg perigee
49.6572°
Mean anomaly
311.7377°
Rev number
12,128

§ Raw data

SITRO-AIS 261 59067U 24039S   26145.19176679  .00003540  00000+0  27709-3 0  99982 59067  95.3916 219.1947 0146918  49.6572 311.7377 14.93140217121282

JSON: /api/v1/satellites/59067 · /tle

For live sub-satellite position, see the globe view (requires WebGL).

§ Visibility from observer

Set your observer location to see the next 7 days of passes ≥ 10°. The values pass through the URL so the page stays shareable.

No JS? Fill the form by hand. The geolocation button needs JavaScript.

§ Radio — SatNOGS DB

ModeDescriptionDownlinkUplink
GMSK USP Mode U - GMSK2k4 USP 401.063 MHz

1 transmitter · refreshed weekly from db.satnogs.org